Regional Weather Roundup
Issued by NWS

Home | Current Version | Previous Version | Graphics & Text | Print | Product List | Glossary On
Versions: 1 2 3 4 5 6 7 8 9 10 11 12 13 14 15 16 17 18 19 20 21 22 23 24 25 26 27 28 29 30 31 32 33 34 35 36 37 38 39 40 41 42 43 44 45 46 47 48 49 50
000
ASUS43 KLOT 210800
RWRIL

ILLINOIS REGIONAL WEATHER ROUNDUP
NATIONAL WEATHER SERVICE CHICAGO/ROMEOVILLE IL
300 AM CDT THU AUG 21 2014

NOTE: "FAIR" INDICATES FEW OR NO CLOUDS BELOW 12,000 FEET WITH NO
SIGNIFICANT WEATHER AND/OR OBSTRUCTIONS TO VISIBILITY.

* THESE STATIONS ARE NOT UNDER NWS QUALITY CONTROL. THEY ALSO MAY NOT
  REPORT WEATHER SUCH AS PRECIPITATION OR FOG.

ILZ001-002-007-009-015-016-024-210900-
NORTHWEST ILLINOIS

CITY           SKY/WX    TMP DP  RH WIND       PRES   REMARKS
MOLINE         PTCLDY    70  68  93 E7        29.90F
STERLING*      CLOUDY    72  66  83 SE6       29.93F
$$

ILZ003-004-008-010-011-017-018-210900-
NORTH CENTRAL ILLINOIS

CITY           SKY/WX    TMP DP  RH WIND       PRES   REMARKS
ROCKFORD       LGT RAIN  71  67  87 CALM      29.95F
ROCHELLE*      CLOUDY    70  66  89 SE5       29.94F
$$

ILZ005-006-012>014-019>023-210900-
NORTHEAST ILLINOIS

CITY           SKY/WX    TMP DP  RH WIND       PRES   REMARKS
CHICAGO-OHARE  CLOUDY    72  65  78 S10       29.95S
CHICAGO-MIDWAY LGT RAIN  73  69  87 SW7       29.96R FOG
AURORA         CLOUDY    71  67  87 SE5       29.95F
WAUKEGAN       PTCLDY    66  65  96 N3        29.93F FOG
DUPAGE AIRPORT MOCLDY    71  67  87 S6        29.95S
WHEELING       PTCLDY    72  67  84 S3        29.96S
NORTHERLY ISL    N/A     74  65  73 S7          N/A
$$

LMZ740>746-210900-
SOUTHERN LAKE MICHIGAN

STATION/POSITION SKY/WX   TEMP    WIND        PRES    VSBY  WAVE
                          AIR SEA DIR/SP/G                  HT/PER
                          (F)     (DEG/KT/KT) (MB)    (MI)  (FT/S)
SOUTHERN BUOY              68 68   70/  6/  8 1014.1F         0
WAUKEGAN HARBOR            70     360/  3/  4   N/A
HARRISON CRIB              75     210/  9/ 11   N/A
BURNHAM HARBOR             73     310/  4/  7   N/A
CALUMET HARBOR             72     220/  4/  6 1013.4F
MICHIGAN CITY              73     180/ 11/ 13   N/A
MICHIGAN CITY 6N           73 71  210/  8/ 12   N/A           1/ 2
ST. JOSEPH                 72 71  190/ 10/ 12   N/A           1
$$

ILZ025>027-034>036-040-047-049-050-058-095>099-210900-
WEST-CENTRAL ILLINOIS

CITY           SKY/WX    TMP DP  RH WIND       PRES   REMARKS
QUINCY         CLEAR     72  69  90 S9        29.93S
MACOMB*        CLOUDY    72  71  96 S3        29.95S
$$

ILZ028>032-037-038-041>044-048-051>054-059>061-210900-
CENTRAL ILLINOIS

CITY           SKY/WX    TMP DP  RH WIND       PRES   REMARKS
DECATUR        MOCLDY    73  68  84 SW8       29.95F
PEORIA         MOCLDY    73  69  87 S3        29.94S
SPRINGFIELD    CLOUDY    76  70  82 S9        29.95S
TAYLORVILLE    NOT AVBL
$$

ILZ033-039-045-046-055>057-062-063-210900-
EAST-CENTRAL ILLINOIS

CITY           SKY/WX    TMP DP  RH WIND       PRES   REMARKS
CHAMPAIGN      LGT RAIN  74  69  85 SW8       29.96F
MATTOON        CLOUDY    73  66  78 S5        29.96F
$$

ILZ079-100>102-210900-
SOUTHWEST ILLINOIS

CITY           SKY/WX    TMP DP  RH WIND       PRES   REMARKS
BELLEVILLE     MOCLDY    75  75 100 CALM      29.96S FOG
CAHOKIA*       MOCLDY    76  74  93 S3        29.96S
$$

ILZ064>066-069>071-074>076-080>082-084>086-088>090-092>094-210900-
SOUTH-CENTRAL ILLINOIS

CITY           SKY/WX    TMP DP  RH WIND       PRES   REMARKS
CARBONDALE     CLOUDY    79  72  79 S8        29.99S HX  82
MT. VERNON     CLOUDY    72  66  83 CALM      30.01S
SALEM*         MOCLDY    74  73  95 S6        29.99S
$$

ILZ067-068-072-073-078-083-087-091-210900-
SOUTHEAST ILLINOIS

CITY           SKY/WX    TMP DP  RH WIND       PRES   REMARKS
LAWRENCEVILLE  CLOUDY    71  68  90 SE9       29.98F
HARRISBURG*    CLOUDY    75  74  95 E5        30.02F
ROBINSON*      CLOUDY    70  67  91 SW3       30.00S
$$

ABBREVIATIONS USED IN REMARKS
   TC - TEMPERATURE IN CELSIUS
  WCI - WIND CHILL INDEX
   HX - HEAT INDEX
  VSB - VISIBILITY
$$




USA.gov is the U.S. government's official web portal to all federal, state and local government web resources and services.